BCS8325 LEVT-LPPT

Flight info

Callsign BCS8325
Flight time 1h 27m
Altitude 38000
Route DGO N976 NEA DCT ARDID DCT INBOM
Aircraft B738/M-SDE2E3FGHIRWXY/LB1

Departure

Time 2026-05-04 21:11
Airport Vitoria Airport (LEVT)

Arrival

Time 2026-05-04 22:38
Airport Lisbon Humberto Delgado Airport (LPPT)
Time Latitude Longitude Altitude Speed Heading
2026-05-04 20:42 42.88110 -2.73473 1667 ft 0 kts 36°
2026-05-04 21:03 42.88100 -2.73483 1681 ft 8 kts 36°
2026-05-04 21:03 42.88056 -2.73526 1674 ft 8 kts 36°
2026-05-04 21:03 42.88040 -2.73546 1679 ft 3 kts 84°
2026-05-04 21:03 42.88042 -2.73563 1681 ft 0 kts 128°
2026-05-04 21:07 42.88032 -2.73545 1681 ft 4 kts 128°
2026-05-04 21:07 42.88004 -2.73498 1675 ft 8 kts 130°
2026-05-04 21:07 42.87963 -2.73424 1674 ft 11 kts 125°
2026-05-04 21:07 42.87895 -2.73400 1670 ft 13 kts 217°
2026-05-04 21:08 42.87821 -2.73431 1669 ft 9 kts 140°
2026-05-04 21:08 42.87777 -2.73351 1673 ft 12 kts 121°
2026-05-04 21:08 42.87785 -2.73246 1671 ft 10 kts 37°
2026-05-04 21:08 42.87829 -2.73200 1673 ft 8 kts 37°
2026-05-04 21:09 42.87876 -2.73151 1673 ft 9 kts 37°
2026-05-04 21:09 42.87899 -2.73081 1669 ft 9 kts 96°
2026-05-04 21:09 42.87901 -2.72994 1667 ft 10 kts 81°
2026-05-04 21:09 42.87928 -2.72890 1670 ft 15 kts 67°
2026-05-04 21:10 42.87998 -2.72731 1670 ft 23 kts 45°
2026-05-04 21:10 42.88183 -2.72550 1676 ft 57 kts 36°
2026-05-04 21:10 42.88695 -2.72046 1681 ft 122 kts 36°
2026-05-04 21:10 42.89505 -2.71248 1807 ft 162 kts 36°
2026-05-04 21:11 42.90419 -2.70322 2496 ft 163 kts 38°
2026-05-04 21:11 42.91332 -2.69402 3293 ft 165 kts 36°
2026-05-04 21:11 42.92104 -2.68163 3646 ft 189 kts 72°
2026-05-04 21:11 42.91993 -2.66294 3891 ft 215 kts 112°
2026-05-04 21:12 42.91186 -2.64458 4107 ft 236 kts 122°
2026-05-04 21:12 42.90256 -2.62546 4553 ft 246 kts 122°
2026-05-04 21:12 42.89296 -2.60584 5199 ft 250 kts 122°
2026-05-04 21:12 42.88334 -2.58614 6007 ft 250 kts 123°
2026-05-04 21:13 42.87386 -2.56658 6755 ft 252 kts 123°
2026-05-04 21:13 42.86411 -2.54638 7387 ft 258 kts 123°
2026-05-04 21:13 42.85421 -2.52588 8104 ft 261 kts 124°
2026-05-04 21:13 42.84418 -2.50508 8760 ft 266 kts 124°
2026-05-04 21:14 42.83481 -2.48758 9372 ft 267 kts 136°
2026-05-04 21:14 42.82673 -2.47926 9754 ft 267 kts 156°
2026-05-04 21:14 42.80874 -2.47453 10374 ft 268 kts 186°
2026-05-04 21:14 42.79059 -2.48222 10592 ft 285 kts 213°
2026-05-04 21:15 42.77445 -2.49935 10796 ft 306 kts 222°
2026-05-04 21:15 42.76530 -2.51022 10885 ft 318 kts 222°
2026-05-04 21:15 42.74889 -2.53005 11047 ft 338 kts 223°
2026-05-04 21:15 42.73082 -2.55200 11197 ft 358 kts 222°
2026-05-04 21:16 42.71180 -2.57497 11459 ft 372 kts 222°
2026-05-04 21:16 42.69230 -2.59837 12016 ft 376 kts 222°
2026-05-04 21:16 42.67261 -2.62185 12727 ft 377 kts 222°
2026-05-04 21:16 42.65286 -2.64531 13443 ft 378 kts 221°
2026-05-04 21:17 42.63299 -2.66885 14102 ft 380 kts 221°
2026-05-04 21:17 42.61329 -2.69216 14801 ft 380 kts 221°
2026-05-04 21:17 42.59331 -2.71576 15478 ft 381 kts 221°
2026-05-04 21:17 42.57323 -2.73946 16111 ft 384 kts 221°
2026-05-04 21:18 42.55301 -2.76330 16777 ft 386 kts 221°
2026-05-04 21:18 42.53271 -2.78724 17393 ft 388 kts 221°
2026-05-04 21:18 42.51223 -2.81135 17993 ft 391 kts 221°
2026-05-04 21:18 42.49168 -2.83553 18546 ft 393 kts 221°
2026-05-04 21:19 42.47096 -2.85988 19049 ft 395 kts 221°
2026-05-04 21:19 42.45179 -2.88592 19544 ft 398 kts 233°
2026-05-04 21:19 42.43933 -2.91953 20065 ft 402 kts 248°
2026-05-04 21:19 42.42929 -2.95479 20606 ft 403 kts 245°
2026-05-04 21:20 42.41768 -2.98939 21055 ft 405 kts 243°
2026-05-04 21:20 42.40557 -3.02388 21522 ft 407 kts 243°
2026-05-04 21:20 42.39335 -3.05852 22003 ft 409 kts 243°
2026-05-04 21:20 42.38114 -3.09337 22464 ft 411 kts 243°
2026-05-04 21:21 42.36896 -3.12844 22919 ft 413 kts 243°
2026-05-04 21:21 42.35697 -3.16319 23393 ft 413 kts 244°
2026-05-04 21:21 42.34487 -3.19839 23884 ft 413 kts 244°
2026-05-04 21:21 42.33277 -3.23368 24229 ft 415 kts 244°
2026-05-04 21:22 42.32057 -3.26922 24520 ft 418 kts 244°
2026-05-04 21:22 42.30835 -3.30483 24876 ft 419 kts 244°
2026-05-04 21:22 42.29604 -3.34065 25241 ft 420 kts 244°
2026-05-04 21:22 42.28373 -3.37643 25565 ft 421 kts 244°
2026-05-04 21:23 42.27135 -3.41235 25907 ft 422 kts 244°
2026-05-04 21:23 42.25908 -3.44787 26228 ft 424 kts 244°
2026-05-04 21:23 42.24657 -3.48407 26498 ft 427 kts 244°
2026-05-04 21:23 42.23399 -3.52041 26809 ft 427 kts 244°
2026-05-04 21:24 42.22146 -3.55658 27251 ft 425 kts 244°
2026-05-04 21:24 42.20897 -3.59255 27769 ft 422 kts 244°
2026-05-04 21:24 42.19658 -3.62823 28278 ft 419 kts 244°
2026-05-04 21:24 42.18423 -3.66371 28721 ft 417 kts 244°
2026-05-04 21:25 42.17194 -3.69901 29143 ft 416 kts 244°
2026-05-04 21:25 42.15967 -3.73416 29583 ft 414 kts 244°
2026-05-04 21:25 42.14759 -3.76876 30057 ft 412 kts 244°
2026-05-04 21:25 42.13544 -3.80352 30414 ft 411 kts 244°
2026-05-04 21:26 42.12326 -3.83830 30695 ft 411 kts 245°
2026-05-04 21:26 42.11099 -3.87331 30874 ft 414 kts 245°
2026-05-04 21:26 42.09868 -3.90838 31146 ft 414 kts 245°
2026-05-04 21:26 42.08641 -3.94329 31485 ft 413 kts 245°
2026-05-04 21:27 42.07429 -3.97776 31795 ft 412 kts 245°
2026-05-04 21:27 42.06204 -4.01255 32051 ft 413 kts 245°
2026-05-04 21:27 42.04972 -4.04750 32327 ft 413 kts 245°
2026-05-04 21:27 42.03743 -4.08230 32620 ft 412 kts 245°
2026-05-04 21:28 42.02510 -4.11709 32910 ft 412 kts 244°
2026-05-04 21:28 42.01232 -4.15167 33164 ft 412 kts 243°
2026-05-04 21:28 41.99927 -4.18596 33438 ft 412 kts 243°
2026-05-04 21:28 41.98612 -4.22016 33729 ft 412 kts 243°
2026-05-04 21:29 41.97313 -4.25392 33993 ft 412 kts 243°
2026-05-04 21:29 41.95996 -4.28817 34214 ft 412 kts 243°
2026-05-04 21:29 41.94684 -4.32237 34371 ft 413 kts 243°
2026-05-04 21:29 41.93366 -4.35676 34538 ft 414 kts 243°
2026-05-04 21:30 41.92048 -4.39119 34743 ft 415 kts 243°
2026-05-04 21:30 41.90728 -4.42563 34934 ft 415 kts 243°
2026-05-04 21:30 41.89406 -4.46010 35124 ft 414 kts 243°
2026-05-04 21:30 41.88107 -4.49394 35430 ft 412 kts 243°
2026-05-04 21:31 41.85472 -4.56250 35686 ft 416 kts 243°
2026-05-04 21:31 41.84141 -4.59707 35843 ft 417 kts 244°
2026-05-04 21:31 41.82808 -4.63164 36025 ft 417 kts 244°
2026-05-04 21:32 41.81478 -4.66607 36219 ft 417 kts 244°
2026-05-04 21:32 41.80143 -4.70062 36385 ft 418 kts 244°
2026-05-04 21:32 41.78803 -4.73524 36540 ft 418 kts 244°
2026-05-04 21:32 41.77463 -4.76982 36728 ft 418 kts 244°
2026-05-04 21:33 41.76137 -4.80400 36893 ft 419 kts 244°
2026-05-04 21:33 41.74794 -4.83857 37069 ft 419 kts 244°
2026-05-04 21:33 41.73448 -4.87319 37228 ft 419 kts 244°
2026-05-04 21:33 41.72101 -4.90780 37395 ft 419 kts 244°
2026-05-04 21:34 41.70747 -4.94252 37545 ft 420 kts 244°
2026-05-04 21:34 41.69397 -4.97713 37655 ft 421 kts 244°
2026-05-04 21:34 41.68052 -5.01155 37750 ft 423 kts 244°
2026-05-04 21:34 41.66692 -5.04631 37930 ft 422 kts 244°
2026-05-04 21:35 41.65330 -5.08110 37992 ft 421 kts 244°
2026-05-04 21:35 41.62618 -5.15020 38024 ft 420 kts 244°
2026-05-04 21:36 41.59914 -5.21897 38036 ft 419 kts 244°
2026-05-04 21:36 41.57214 -5.28746 38038 ft 419 kts 244°
2026-05-04 21:37 41.54494 -5.35631 38037 ft 419 kts 244°
2026-05-04 21:37 41.51773 -5.42502 38052 ft 419 kts 244°
2026-05-04 21:38 41.49044 -5.49378 38041 ft 420 kts 244°
2026-05-04 21:38 41.46300 -5.56272 38052 ft 421 kts 243°
2026-05-04 21:39 41.43566 -5.63128 38051 ft 422 kts 243°
2026-05-04 21:39 41.40804 -5.70038 38044 ft 423 kts 244°
2026-05-04 21:40 41.38039 -5.76938 38052 ft 423 kts 244°
2026-05-04 21:40 41.35281 -5.83805 38059 ft 423 kts 244°
2026-05-04 21:41 41.32508 -5.90692 38059 ft 422 kts 244°
2026-05-04 21:41 41.29731 -5.97576 38065 ft 422 kts 243°
2026-05-04 21:42 41.26953 -6.04443 38066 ft 422 kts 243°
2026-05-04 21:42 41.24192 -6.11258 38075 ft 421 kts 244°
2026-05-04 21:43 41.21411 -6.18105 38074 ft 421 kts 244°
2026-05-04 21:43 41.18628 -6.24941 38077 ft 421 kts 244°
2026-05-04 21:44 41.15567 -6.31546 38086 ft 421 kts 236°
2026-05-04 21:44 41.12045 -6.37694 38077 ft 421 kts 236°
2026-05-04 21:45 41.08504 -6.43869 38076 ft 420 kts 236°
2026-05-04 21:45 41.04996 -6.50040 38076 ft 419 kts 236°
2026-05-04 21:46 41.01496 -6.56221 38084 ft 419 kts 236°
2026-05-04 21:46 40.98124 -6.62173 38091 ft 419 kts 236°
2026-05-04 21:47 40.94617 -6.68351 38084 ft 420 kts 236°
2026-05-04 21:47 40.91106 -6.74522 38085 ft 419 kts 236°
2026-05-04 21:48 40.87595 -6.80680 38094 ft 419 kts 236°
2026-05-04 21:48 40.84083 -6.86830 38091 ft 419 kts 236°
2026-05-04 21:49 40.80589 -6.92934 38102 ft 420 kts 236°
2026-05-04 21:49 40.77065 -6.99080 38098 ft 421 kts 236°
2026-05-04 21:50 40.73525 -7.05241 38098 ft 422 kts 236°
2026-05-04 21:50 40.69978 -7.11400 38096 ft 422 kts 236°
2026-05-04 21:51 40.66454 -7.17509 38095 ft 421 kts 236°
2026-05-04 21:51 40.62909 -7.23638 38117 ft 420 kts 237°
2026-05-04 21:52 40.59375 -7.29739 38100 ft 418 kts 237°
2026-05-04 21:52 40.55854 -7.35808 38119 ft 416 kts 237°
2026-05-04 21:53 40.52372 -7.41796 38097 ft 415 kts 237°
2026-05-04 21:53 40.48870 -7.47807 38103 ft 414 kts 237°
2026-05-04 21:54 40.45372 -7.53801 38113 ft 413 kts 237°
2026-05-04 21:54 40.41872 -7.59786 38124 ft 413 kts 237°
2026-05-04 21:55 40.38396 -7.65720 38108 ft 413 kts 237°
2026-05-04 21:55 40.34888 -7.71696 38113 ft 414 kts 237°
2026-05-04 21:56 40.31369 -7.77678 38102 ft 414 kts 237°
2026-05-04 21:56 40.27844 -7.83662 37778 ft 420 kts 237°
2026-05-04 21:56 40.26057 -7.86691 37308 ft 419 kts 237°
2026-05-04 21:57 40.24281 -7.89695 36760 ft 415 kts 237°
2026-05-04 21:57 40.22540 -7.92637 36153 ft 414 kts 237°
2026-05-04 21:57 40.20784 -7.95603 35513 ft 412 kts 237°
2026-05-04 21:57 40.19025 -7.98571 34955 ft 408 kts 238°
2026-05-04 21:58 40.17294 -8.01489 34259 ft 408 kts 238°
2026-05-04 21:58 40.15564 -8.04404 33679 ft 402 kts 238°
2026-05-04 21:58 40.13847 -8.07294 32831 ft 403 kts 238°
2026-05-04 21:58 40.12135 -8.10176 32124 ft 401 kts 238°
2026-05-04 21:59 40.10428 -8.13047 31459 ft 400 kts 238°
2026-05-04 21:59 40.08743 -8.15876 30721 ft 400 kts 239°
2026-05-04 21:59 40.07032 -8.18751 29908 ft 401 kts 239°
2026-05-04 21:59 40.05334 -8.21582 29723 ft 386 kts 239°
2026-05-04 22:00 40.03698 -8.24312 29460 ft 374 kts 239°
2026-05-04 22:00 40.02095 -8.26918 29244 ft 366 kts 234°
2026-05-04 22:00 40.00013 -8.28862 29104 ft 378 kts 213°
2026-05-04 22:00 39.97638 -8.30210 28778 ft 366 kts 217°
2026-05-04 22:01 39.95265 -8.31485 28471 ft 382 kts 204°
2026-05-04 22:01 39.92505 -8.31877 28234 ft 411 kts 193°
2026-05-04 22:01 39.89676 -8.32082 27844 ft 412 kts 195°
2026-05-04 22:01 39.86829 -8.32401 27503 ft 410 kts 195°
2026-05-04 22:02 39.83998 -8.32741 27188 ft 408 kts 196°
2026-05-04 22:02 39.81179 -8.33122 26846 ft 406 kts 197°
2026-05-04 22:02 39.78390 -8.33534 26528 ft 401 kts 197°
2026-05-04 22:02 39.75633 -8.33953 26204 ft 395 kts 197°
2026-05-04 22:03 39.72928 -8.34367 25853 ft 388 kts 197°
2026-05-04 22:03 39.70329 -8.34952 25546 ft 368 kts 209°
2026-05-04 22:03 39.68243 -8.36480 25331 ft 337 kts 227°
2026-05-04 22:03 39.66541 -8.38473 25053 ft 323 kts 236°
2026-05-04 22:04 39.65160 -8.40705 24814 ft 312 kts 240°
2026-05-04 22:04 39.63893 -8.42958 24562 ft 307 kts 241°
2026-05-04 22:04 39.62637 -8.45178 24315 ft 303 kts 240°
2026-05-04 22:04 39.61375 -8.47354 24077 ft 300 kts 240°
2026-05-04 22:05 39.60107 -8.49514 23844 ft 303 kts 240°
2026-05-04 22:05 39.58808 -8.51692 23583 ft 309 kts 237°
2026-05-04 22:05 39.57151 -8.53550 23271 ft 324 kts 220°
2026-05-04 22:05 39.55203 -8.55023 23015 ft 323 kts 219°
2026-05-04 22:06 39.53297 -8.56491 22732 ft 322 kts 220°
2026-05-04 22:06 39.51376 -8.57984 22469 ft 321 kts 220°
2026-05-04 22:06 39.49464 -8.59478 22207 ft 321 kts 219°
2026-05-04 22:06 39.47557 -8.60971 21927 ft 319 kts 219°
2026-05-04 22:07 39.45659 -8.62457 21681 ft 319 kts 219°
2026-05-04 22:07 39.43764 -8.63942 21439 ft 318 kts 219°
2026-05-04 22:07 39.41871 -8.65426 21188 ft 318 kts 219°
2026-05-04 22:07 39.40004 -8.66888 20932 ft 318 kts 219°
2026-05-04 22:08 39.38118 -8.68364 20687 ft 318 kts 219°
2026-05-04 22:08 39.36227 -8.69844 20431 ft 318 kts 219°
2026-05-04 22:08 39.34336 -8.71322 20177 ft 318 kts 218°
2026-05-04 22:08 39.32443 -8.72798 19917 ft 318 kts 218°
2026-05-04 22:09 39.30597 -8.74349 19656 ft 314 kts 225°
2026-05-04 22:09 39.28948 -8.76150 19416 ft 310 kts 229°
2026-05-04 22:09 39.27353 -8.78036 19166 ft 310 kts 229°
2026-05-04 22:09 39.25770 -8.79922 18919 ft 310 kts 229°
2026-05-04 22:10 39.24204 -8.81770 18660 ft 310 kts 229°
2026-05-04 22:10 39.22608 -8.83634 18415 ft 309 kts 228°
2026-05-04 22:10 39.21010 -8.85484 18138 ft 308 kts 228°
2026-05-04 22:10 39.19414 -8.87321 17876 ft 307 kts 228°
2026-05-04 22:11 39.17825 -8.89142 17618 ft 305 kts 228°
2026-05-04 22:11 39.16234 -8.90959 17371 ft 304 kts 227°
2026-05-04 22:11 39.14657 -8.92760 17118 ft 303 kts 227°
2026-05-04 22:11 39.13084 -8.94553 16885 ft 301 kts 227°
2026-05-04 22:12 39.11539 -8.96312 16642 ft 300 kts 227°
2026-05-04 22:12 39.09976 -8.98092 16401 ft 299 kts 227°
2026-05-04 22:12 39.08418 -8.99865 16156 ft 298 kts 227°
2026-05-04 22:12 39.06864 -9.01630 15928 ft 298 kts 227°
2026-05-04 22:13 39.05314 -9.03394 15688 ft 297 kts 227°
2026-05-04 22:13 39.03765 -9.05152 15445 ft 296 kts 227°
2026-05-04 22:13 39.02233 -9.06889 15202 ft 291 kts 227°
2026-05-04 22:13 39.00722 -9.08597 14967 ft 287 kts 226°
2026-05-04 22:14 38.99091 -9.10016 14691 ft 291 kts 210°
2026-05-04 22:14 38.97214 -9.10971 14509 ft 288 kts 207°
2026-05-04 22:14 38.95361 -9.11915 14271 ft 285 kts 208°
2026-05-04 22:14 38.93536 -9.12863 14033 ft 281 kts 208°
2026-05-04 22:15 38.91734 -9.13809 13820 ft 278 kts 208°
2026-05-04 22:15 38.89953 -9.14752 13574 ft 276 kts 208°
2026-05-04 22:15 38.88186 -9.15692 13336 ft 274 kts 208°
2026-05-04 22:15 38.86433 -9.16626 13120 ft 271 kts 208°
2026-05-04 22:16 38.84694 -9.17553 12905 ft 271 kts 208°
2026-05-04 22:16 38.82970 -9.18475 12702 ft 273 kts 208°
2026-05-04 22:16 38.81210 -9.19415 12477 ft 275 kts 208°
2026-05-04 22:16 38.79429 -9.20366 12253 ft 278 kts 207°
2026-05-04 22:17 38.77646 -9.21317 12024 ft 278 kts 207°
2026-05-04 22:17 38.75855 -9.22270 11802 ft 279 kts 207°
2026-05-04 22:17 38.74063 -9.23223 11566 ft 278 kts 207°
2026-05-04 22:17 38.72349 -9.24293 11311 ft 269 kts 222°
2026-05-04 22:18 38.71186 -9.26068 11132 ft 257 kts 240°
2026-05-04 22:18 38.70163 -9.27915 10934 ft 259 kts 237°
2026-05-04 22:18 38.69069 -9.29752 10723 ft 260 kts 236°
2026-05-04 22:18 38.67976 -9.31589 10517 ft 260 kts 237°
2026-05-04 22:19 38.67084 -9.33584 10302 ft 257 kts 250°
2026-05-04 22:19 38.66395 -9.35696 10103 ft 258 kts 250°
2026-05-04 22:19 38.65673 -9.37803 9877 ft 259 kts 249°
2026-05-04 22:19 38.64935 -9.39911 9653 ft 260 kts 249°
2026-05-04 22:20 38.64189 -9.42017 9433 ft 260 kts 248°
2026-05-04 22:20 38.63438 -9.44123 9217 ft 260 kts 248°
2026-05-04 22:20 38.62686 -9.46224 8997 ft 260 kts 248°
2026-05-04 22:20 38.61943 -9.48288 8789 ft 258 kts 249°
2026-05-04 22:21 38.61194 -9.50369 8577 ft 257 kts 248°
2026-05-04 22:21 38.60446 -9.52420 8374 ft 254 kts 245°
2026-05-04 22:21 38.59305 -9.54118 8186 ft 256 kts 213°
2026-05-04 22:21 38.57622 -9.54766 8165 ft 257 kts 187°
2026-05-04 22:22 38.55834 -9.54609 8170 ft 260 kts 170°
2026-05-04 22:22 38.54064 -9.54111 8165 ft 261 kts 170°
2026-05-04 22:22 38.52307 -9.53641 8153 ft 262 kts 171°
2026-05-04 22:22 38.50518 -9.53171 8155 ft 263 kts 170°
2026-05-04 22:23 38.48817 -9.52322 8145 ft 265 kts 146°
2026-05-04 22:23 38.47347 -9.50908 8162 ft 266 kts 145°
2026-05-04 22:23 38.45822 -9.49577 8161 ft 266 kts 147°
2026-05-04 22:23 38.44279 -9.48267 8157 ft 267 kts 147°
2026-05-04 22:24 38.42735 -9.46960 8159 ft 267 kts 147°
2026-05-04 22:24 38.41271 -9.45496 8149 ft 269 kts 130°
2026-05-04 22:24 38.40274 -9.43508 8172 ft 266 kts 120°
2026-05-04 22:24 38.39303 -9.41537 8156 ft 266 kts 123°
2026-05-04 22:25 38.38274 -9.39581 8151 ft 264 kts 124°
2026-05-04 22:25 38.37252 -9.37649 8150 ft 263 kts 124°
2026-05-04 22:25 38.36268 -9.35699 8151 ft 260 kts 115°
2026-05-04 22:25 38.35814 -9.33504 8181 ft 256 kts 95°
2026-05-04 22:26 38.35542 -9.31234 8161 ft 263 kts 99°
2026-05-04 22:26 38.35184 -9.28947 8164 ft 264 kts 100°
2026-05-04 22:26 38.34819 -9.26666 8164 ft 261 kts 100°
2026-05-04 22:26 38.34460 -9.24405 8145 ft 259 kts 99°
2026-05-04 22:27 38.34430 -9.22179 8142 ft 253 kts 75°
2026-05-04 22:27 38.34859 -9.20000 8164 ft 258 kts 74°
2026-05-04 22:27 38.35261 -9.17767 8158 ft 258 kts 68°
2026-05-04 22:27 38.36201 -9.15922 8153 ft 245 kts 33°
2026-05-04 22:28 38.37709 -9.15056 8126 ft 239 kts
2026-05-04 22:28 38.39369 -9.15082 7873 ft 242 kts 345°
2026-05-04 22:28 38.40883 -9.15928 7614 ft 237 kts 324°
2026-05-04 22:28 38.42187 -9.17193 7383 ft 234 kts 322°
2026-05-04 22:29 38.43480 -9.18446 7144 ft 232 kts 322°
2026-05-04 22:29 38.44758 -9.19691 6898 ft 231 kts 322°
2026-05-04 22:29 38.46012 -9.20914 6677 ft 229 kts 322°
2026-05-04 22:29 38.47268 -9.22135 6435 ft 224 kts 322°
2026-05-04 22:30 38.48489 -9.23320 6195 ft 217 kts 322°
2026-05-04 22:30 38.49678 -9.24473 6011 ft 213 kts 322°
2026-05-04 22:30 38.50867 -9.25627 5804 ft 215 kts 322°
2026-05-04 22:30 38.52055 -9.26781 5592 ft 213 kts 323°
2026-05-04 22:31 38.53224 -9.27914 5416 ft 208 kts 323°
2026-05-04 22:31 38.54353 -9.29002 5205 ft 200 kts 325°
2026-05-04 22:31 38.55618 -9.29597 4986 ft 194 kts
2026-05-04 22:31 38.56867 -9.29077 4838 ft 188 kts 28°
2026-05-04 22:32 38.57797 -9.27979 4624 ft 187 kts 54°
2026-05-04 22:32 38.58312 -9.26462 4463 ft 187 kts 63°
2026-05-04 22:32 38.58811 -9.24924 4284 ft 186 kts 62°
2026-05-04 22:32 38.59484 -9.23566 4032 ft 178 kts 31°
2026-05-04 22:33 38.60575 -9.23049 3896 ft 164 kts 13°
2026-05-04 22:33 38.61588 -9.22525 3651 ft 152 kts 19°
2026-05-04 22:33 38.62541 -9.21986 3432 ft 149 kts 19°
2026-05-04 22:33 38.63497 -9.21462 3202 ft 149 kts 19°
2026-05-04 22:34 38.64438 -9.20951 2993 ft 145 kts 18°
2026-05-04 22:34 38.65359 -9.20455 2814 ft 146 kts 18°
2026-05-04 22:34 38.66304 -9.19947 2604 ft 147 kts 18°
2026-05-04 22:34 38.67238 -9.19443 2401 ft 145 kts 18°
2026-05-04 22:35 38.68169 -9.18945 2199 ft 146 kts 18°
2026-05-04 22:35 38.69100 -9.18445 2013 ft 144 kts 19°
2026-05-04 22:35 38.70029 -9.17945 1815 ft 144 kts 18°
2026-05-04 22:35 38.70950 -9.17449 1611 ft 144 kts 18°
2026-05-04 22:36 38.71870 -9.16955 1437 ft 143 kts 19°
2026-05-04 22:36 38.72812 -9.16449 1212 ft 147 kts 18°
2026-05-04 22:36 38.73747 -9.15946 1012 ft 145 kts 18°
2026-05-04 22:36 38.74666 -9.15453 815 ft 147 kts 19°
2026-05-04 22:37 38.75638 -9.14936 650 ft 155 kts 21°
2026-05-04 22:37 38.76640 -9.14391 404 ft 156 kts 21°
2026-05-04 22:37 38.77589 -9.13889 345 ft 133 kts 23°
2026-05-04 22:37 38.78249 -9.13520 347 ft 65 kts 35°
2026-05-04 22:38 38.78373 -9.13290 349 ft 0 kts 114°
2026-05-04 22:38 38.78373 -9.13288 350 ft 1 kts 114°
2026-05-04 22:38 38.78350 -9.13263 353 ft 6 kts 164°
2026-05-04 22:39 38.78299 -9.13275 351 ft 10 kts 200°
2026-05-04 22:39 38.78212 -9.13318 351 ft 17 kts 202°
2026-05-04 22:39 38.78087 -9.13383 350 ft 22 kts 201°
2026-05-04 22:39 38.77992 -9.13406 350 ft 14 kts 172°
2026-05-04 22:40 38.77921 -9.13387 350 ft 6 kts 166°
2026-05-04 22:40 38.77889 -9.13378 346 ft 8 kts 166°
2026-05-04 22:40 38.77829 -9.13363 346 ft 9 kts 169°
2026-05-04 22:40 38.77738 -9.13339 347 ft 11 kts 168°
2026-05-04 22:41 38.77681 -9.13325 352 ft 8 kts 171°
2026-05-04 22:41 38.77634 -9.13321 348 ft 5 kts 179°
2026-05-04 22:41 38.77622 -9.13320 348 ft 1 kts 178°
2026-05-04 22:41 38.77617 -9.13313 353 ft 2 kts 131°
2026-05-04 22:42 38.77601 -9.13272 349 ft 8 kts 91°
2026-05-04 22:42 38.77607 -9.13204 346 ft 0 kts 84°